South Bend, IN

11:48 PM EDT on May 28, 2017 (GMT -0400)
South Bend Regional

Weather History for KSBN - September, 2013

Change the Weather History Date:

Sunday, September 22, 2013

  Actual Average Record
Temperature  
Mean Temperature 55 °F 61 °F  
Max Temperature 65 °F 72 °F 95 °F (1908)
Min Temperature 44 °F 51 °F 34 °F (1947)
Degree Days  
Heating Degree Days 10 5  
Month to date heating degree days 54 60  
Since 1 July heating degree days 83 78  
Cooling Degree Days 0 2  
Month to date cooling degree days 116 72  
Year to date cooling degree days 796 754  
Growing Degree Days 5 (Base 50)    
Moisture  
Dew Point 44 °F    
Average Humidity 65    
Maximum Humidity 86    
Minimum Humidity 38    
Precipitation  
Precipitation 0.00 in 0.12 in 1.35 in (1965)
Month to date precipitation 3.89 2.60  
Year to date precipitation 30.81 27.87  
Snow  
Snow 0.00 in 0.00 in 0.00 in (2002)
Month to date snowfall 0.0 0.0  
Since 1 July snowfall 0.0 0.0  
Since 1 September snowfall 0.0 0.0  
Snow Depth 0.00 in    
Sea Level Pressure  
Sea Level Pressure 30.02 in    
Wind  
Wind Speed 5 mph (North)    
Max Wind Speed 16 mph    
Max Gust Speed 21 mph    
Visibility 10 miles    
Events      
T = Trace of Precipitation, MM = Missing Value Source: NWS Daily Summary

Daily Weather History Graph

Daily Weather History Graph

Search for Another Location

Airport or City:

Trip Planner

Search our weather history database for the weather conditions in past years. The results will help you decide how hot, cold, wet, or windy it might be!

Date:

Astronomy

Sep. 22, 2013 Rise Set
Actual Time 7:32 AM EDT 7:42 PM EDT
Civil Twilight 7:05 AM EDT 8:09 PM EDT
Nautical Twilight 6:32 AM EDT 8:42 PM EDT
Astronomical Twilight 5:59 AM EDT 9:15 PM EDT
Moon 9:28 PM EDT (9/22) 10:55 AM EDT (9/22)
Length of Visible Light 13h 04m
Length of Day
12h 09m
Waning Gibbous, 89% of the Moon is Illuminated
Sep 22
Waning Gibbous
Sep 26
Last Quarter
Oct 4
New
Oct 11
First Quarter
Oct 18
Full

Hourly Weather History & Observations

Time (EDT) Temp. Dew Point Humidity Pressure Visibility Wind Dir Wind Speed Gust Speed Precip Events Conditions
12:54 AM 55.9 °F 48.9 °F 77% 29.94 in 10.0 mi Calm Calm - N/A   Overcast
1:54 AM 55.9 °F 48.0 °F 75% 29.94 in 10.0 mi NE 5.8 mph - N/A   Overcast
2:54 AM 55.9 °F 48.0 °F 75% 29.96 in 10.0 mi NNE 5.8 mph - N/A   Overcast
3:54 AM 55.0 °F 46.0 °F 72% 29.96 in 10.0 mi Calm Calm - N/A   Overcast
4:54 AM 54.0 °F 46.9 °F 77% 29.97 in 10.0 mi North 3.5 mph - N/A   Overcast
5:54 AM 53.1 °F 46.0 °F 77% 29.99 in 10.0 mi Calm Calm - N/A   Mostly Cloudy
6:54 AM 48.9 °F 45.0 °F 86% 30.00 in 10.0 mi Calm Calm - N/A   Mostly Cloudy
7:54 AM 48.0 °F 44.1 °F 86% 30.02 in 10.0 mi Calm Calm - N/A   Partly Cloudy
8:54 AM 51.1 °F 46.9 °F 86% 30.03 in 10.0 mi Calm Calm - N/A   Mostly Cloudy
9:54 AM 55.9 °F 44.1 °F 64% 30.05 in 10.0 mi Variable 3.5 mph - N/A   Overcast
10:54 AM 57.0 °F 43.0 °F 59% 30.06 in 10.0 mi East 5.8 mph - N/A   Mostly Cloudy
11:54 AM 60.1 °F 44.1 °F 55% 30.06 in 10.0 mi ENE 5.8 mph - N/A   Mostly Cloudy
12:54 PM 61.0 °F 43.0 °F 52% 30.05 in 10.0 mi NNW 8.1 mph - N/A   Mostly Cloudy
1:04 PM 62.6 °F 44.6 °F 52% 30.05 in 10.0 mi North 16.1 mph 20.7 mph N/A   Mostly Cloudy
1:54 PM 62.1 °F 43.0 °F 50% 30.04 in 10.0 mi NNW 9.2 mph - N/A   Mostly Cloudy
2:54 PM 64.0 °F 43.0 °F 46% 30.02 in 10.0 mi North 4.6 mph - N/A   Partly Cloudy
3:54 PM 64.0 °F 42.1 °F 45% 30.02 in 10.0 mi NW 10.4 mph - N/A   Partly Cloudy
4:54 PM 63.0 °F 41.0 °F 45% 30.01 in 10.0 mi North 5.8 mph - N/A   Clear
5:54 PM 62.1 °F 41.0 °F 46% 30.03 in 10.0 mi North 10.4 mph - N/A   Clear
6:54 PM 59.0 °F 42.1 °F 53% 30.04 in 10.0 mi North 11.5 mph - N/A   Clear
7:54 PM 55.0 °F 43.0 °F 64% 30.05 in 10.0 mi NNW 8.1 mph - N/A   Clear
8:54 PM 50.0 °F 44.1 °F 80% 30.07 in 10.0 mi North 5.8 mph - N/A   Clear
9:54 PM 50.0 °F 43.0 °F 77% 30.08 in 10.0 mi NNE 6.9 mph - N/A   Clear
10:54 PM 50.0 °F 43.0 °F 77% 30.08 in 10.0 mi NE 3.5 mph - N/A   Clear
11:54 PM 48.0 °F 42.1 °F 80% 30.08 in 10.0 mi Calm Calm - N/A   Clear